Location: Vancouver
(49.2500°N, 123.1330°W)
Time: 18:39:25
(UTC-08:00)

deb Explorer IX - Visible Passes

Search period start: 23 November 2014 00:00
Search period end: 03 December 2014 00:00
Orbit: 558 x 1193 km, 38.8° (Epoch: 23 November)

Date Brightness Start Highest point End Pass type
(mag) Time Alt. Az. Time Alt. Az. Time Alt. Az.
23 Nov ? 17:22:03 10° SW 17:26:21 26° SSE 17:31:18 10° ESE visible
23 Nov ? 19:08:51 10° WSW 19:13:45 30° S 19:14:41 29° S visible
23 Nov ? 20:56:49 10° WSW 20:57:07 11° WSW 20:57:07 11° WSW visible
24 Nov ? 17:15:44 10° SW 17:20:00 27° S 17:24:54 10° ESE visible
24 Nov ? 19:02:40 10° WSW 19:07:24 28° S 19:08:50 25° SSE visible
24 Nov ? 20:50:55 10° WSW 20:51:16 11° WSW 20:51:16 11° WSW visible
25 Nov ? 17:09:24 10° SW 17:13:36 27° S 17:18:26 10° ESE visible
25 Nov ? 18:56:29 10° WSW 19:00:59 26° S 19:02:59 22° SSE visible
25 Nov ? 20:45:09 10° WSW 20:45:26 11° SW 20:45:26 11° SW visible
26 Nov ? 17:03:03 10° SW 17:07:10 27° S 17:11:54 10° ESE visible
26 Nov ? 18:50:17 10° WSW 18:54:32 23° SSW 18:57:11 18° SSE visible
27 Nov ? 16:56:41 10° SW 17:00:42 26° S 17:05:18 10° ESE visible
27 Nov ? 18:44:05 10° WSW 18:48:02 21° SSW 18:51:27 13° SSE visible
28 Nov ? 16:50:17 10° SW 16:54:12 25° S 16:58:38 10° SE visible
28 Nov ? 18:37:56 10° WSW 18:41:29 18° SSW 18:45:25 10° SSE visible
29 Nov ? 16:43:53 10° WSW 16:47:39 24° S 16:51:53 10° SE visible
29 Nov ? 18:31:49 10° WSW 18:34:53 16° SSW 18:38:13 10° SSE visible
30 Nov ? 18:25:52 10° SW 18:28:14 13° SSW 18:30:45 10° S visible
01 Dec ? 18:20:27 10° SW 18:21:31 11° SSW 18:22:38 10° SSW visible
